Weather History for Tarbes, France

Change the Weather History Date:

Sunday, November 25, 2012

  Actual Average Record
Temperature  
Mean Temperature 48 °F -  
Max Temperature 53 °F 50 °F 69 °F (2006)
Min Temperature 44 °F 34 °F 30 °F (1999)
Degree Days  
Heating Degree Days 16    
Moisture  
Dew Point 48 °F    
Average Humidity 91    
Maximum Humidity 100    
Minimum Humidity 62    
Precipitation  
Precipitation 0.04 in - - ()
Sea Level Pressure  
Sea Level Pressure 30.06 in    
Wind  
Wind Speed 2 mph ()    
Max Wind Speed 8 mph    
Max Gust Speed -    
Visibility 4.9 miles    
Events Rain    
Averages and records for this station are not official NWS values.
T = Trace of Precipitation, MM = Missing Value Source: Averaged Metar Reports

Daily Weather History Graph

Daily Weather History Graph

Search for Another Location

Airport:

Trip Planner

Search our weather history database for the weather conditions in past years. The results will help you decide how hot, cold, wet, or windy it might be!

Date:

Astronomy

Nov. 25, 2012 Rise Set
Actual Time 8:05 AM CET 5:28 PM CET
Civil Twilight 7:34 AM CET 5:59 PM CET
Nautical Twilight 6:58 AM CET 6:34 PM CET
Astronomical Twilight 6:24 AM CET 7:08 PM CET
Moon 3:40 PM CET (11/25) 5:01 AM CET (11/25)
Length of Visible Light 10h 25m
Length of Day
9h 22m
Waxing Gibbous, 91% of the Moon is Illuminated
Nov 25
Waxing Gibbous
Nov 28
Full
Dec 6
Last Quarter
Dec 13
New
Dec 20
First Quarter

Hourly Weather History & Observations

Time (CET) Temp. Dew Point Humidity Pressure Visibility Wind Dir Wind Speed Gust Speed Precip Events Conditions
12:00 AM 50.0 °F 42.8 °F 76% 30.15 in 6.2 mi SSE 4.6 mph - N/A   Overcast
12:30 AM 50.0 °F 42.8 °F 76% 30.15 in 6.2 mi SSE 3.5 mph - N/A   Overcast
1:00 AM 51 °F 42 °F 62% 30.17 in 16 mi SSE 3.5 mph - -   Clear
1:00 AM 51.8 °F 42.8 °F 71% 30.15 in 6.2 mi SSE 3.5 mph - N/A   Overcast
1:30 AM 50.0 °F 44.6 °F 82% 30.12 in 6.2 mi Variable 2.3 mph - N/A   Overcast
2:00 AM 50.0 °F 44.6 °F 82% 30.12 in 6.2 mi West 2.3 mph - N/A   Overcast
2:30 AM 50.0 °F 44.6 °F 82% 30.12 in 5.6 mi Calm Calm - N/A   Overcast
3:00 AM 50.0 °F 46.4 °F 87% 30.12 in 6.2 mi Calm Calm - N/A   Overcast
3:30 AM 50.0 °F 48.2 °F 94% 30.12 in - Calm Calm - N/A Rain Light Rain
4:00 AM 50.0 °F 48.2 °F 94% 30.12 in 6.2 mi Calm Calm - N/A   Overcast
4:30 AM 50.0 °F 48.2 °F 94% 30.12 in 1.7 mi North 6.9 mph - N/A   Light Drizzle
5:00 AM 50.0 °F 48.2 °F 94% 30.12 in - NE 2.3 mph - N/A   Light Drizzle
5:30 AM 50.0 °F 48.2 °F 94% 30.12 in 1.7 mi East 2.3 mph - N/A   Light Drizzle
6:00 AM 50.0 °F 48.2 °F 94% 30.12 in - Variable 1.2 mph - N/A   Light Drizzle
6:30 AM 50.0 °F 48.2 °F 94% 30.12 in - Calm Calm - N/A   Light Drizzle
7:00 AM 49 °F 48 °F 97% 30.15 in 2 mi Calm Calm - - Rain Light Drizzle
7:00 AM 50.0 °F 48.2 °F 94% 30.12 in - Calm Calm - N/A   Light Drizzle
7:30 AM 50.0 °F 48.2 °F 94% 30.12 in 1.4 mi Calm Calm - N/A   Drizzle
8:00 AM 50.0 °F 48.2 °F 94% 30.12 in 1.4 mi Calm Calm - N/A   Light Drizzle
8:30 AM 50.0 °F 48.2 °F 94% 30.12 in 1.4 mi NE 3.5 mph - N/A   Light Drizzle
9:00 AM 50.0 °F 48.2 °F 94% 30.12 in 1.5 mi Variable 2.3 mph - N/A   Light Drizzle
9:30 AM 50.0 °F 48.2 °F 94% 30.12 in - Variable 1.2 mph - N/A   Overcast
10:00 AM 50.0 °F 48.2 °F 94% 30.12 in 5.6 mi Calm Calm - N/A   Overcast
10:30 AM 50.0 °F 50.0 °F 100% 30.12 in 6.2 mi Calm Calm - N/A   Overcast
11:00 AM 50.0 °F 50.0 °F 100% 30.12 in 5.6 mi Calm Calm - N/A   Overcast
11:30 AM 50.0 °F 50.0 °F 100% 30.12 in 2.2 mi NNE 4.6 mph - N/A Rain Light Rain
12:00 PM 51.8 °F 50.0 °F 94% 30.12 in 5.0 mi North 3.5 mph - N/A Rain Light Rain
12:30 PM 51.8 °F 50.0 °F 94% 30.12 in 3.7 mi North 3.5 mph - N/A Rain Light Rain
1:00 PM 51 °F 48 °F 87% 30.12 in 11 mi North 5.8 mph - -   Clear
1:00 PM 51.8 °F 48.2 °F 88% 30.09 in 6.2 mi North 5.8 mph - N/A   Overcast
1:30 PM 51.8 °F 48.2 °F 88% 30.09 in 6.2 mi Variable 2.3 mph - N/A   Overcast
2:00 PM 51.8 °F 50.0 °F 94% 30.06 in 6.2 mi ESE 5.8 mph - N/A   Overcast
2:30 PM 51.8 °F 50.0 °F 94% 30.04 in 6.2 mi East 8.1 mph - N/A   Overcast
3:00 PM 53.6 °F 50.0 °F 88% 30.01 in 6.2 mi East 6.9 mph - N/A   Overcast
3:30 PM 53.6 °F 50.0 °F 88% 30.01 in 6.2 mi East 5.8 mph - N/A   Overcast
4:00 PM 53.6 °F 50.0 °F 88% 29.98 in 6.2 mi East 5.8 mph - N/A   Overcast
4:30 PM 53.6 °F 50.0 °F 88% 29.98 in 6.2 mi ESE 4.6 mph - N/A   Mostly Cloudy
5:00 PM 51.8 °F 48.2 °F 88% 29.98 in 6.2 mi Variable 3.5 mph - N/A   Mostly Cloudy
5:30 PM 51.8 °F 48.2 °F 88% 29.98 in 6.2 mi Calm Calm - N/A   Mostly Cloudy
6:00 PM 51.8 °F 48.2 °F 88% 29.95 in 6.2 mi Variable 2.3 mph - N/A   Overcast
6:30 PM 51.8 °F 48.2 °F 88% 29.95 in 6.2 mi Variable 2.3 mph - N/A   Overcast
7:00 PM 50 °F 47 °F 88% 29.96 in 7 mi Calm Calm - -   Clear
7:00 PM 50.0 °F 48.2 °F 94% 29.95 in 6.2 mi Calm Calm - N/A   Overcast
7:30 PM 48.2 °F 46.4 °F 93% 29.95 in 3.1 mi Variable 2.3 mph - N/A   Mist
8:00 PM 48.2 °F 46.4 °F 93% 29.92 in 1.8 mi Variable 2.3 mph - N/A   Overcast
8:30 PM 48.2 °F 46.4 °F 93% 29.92 in 3.1 mi SSW 2.3 mph - N/A   Mist
9:00 PM 48.2 °F 46.4 °F 93% 29.92 in 2.5 mi South 3.5 mph - N/A   Mist
9:30 PM 48.2 °F 46.4 °F 93% 29.92 in 3.1 mi South 3.5 mph - N/A   Mist
10:00 PM 48.2 °F 46.4 °F 93% 29.92 in 3.1 mi SE 3.5 mph - N/A   Mist
10:30 PM 46.4 °F 46.4 °F 100% 29.92 in 1.6 mi South 1.2 mph - N/A   Overcast
11:00 PM 48.2 °F 46.4 °F 93% 29.92 in 3.1 mi SSW 2.3 mph - N/A   Overcast
11:30 PM 46.4 °F 46.4 °F 100% 29.89 in 1.9 mi South 2.3 mph - N/A   Overcast